Flag for Russia Weather past 2 weeks in Yekaterinburg, Russia

Now
10 °F

Partly sunny.


Feels Like: -6 °F
Forecast: 6 / 17 °F
Wind: 15 mph from Northwest

Location: Ekaterinburg

Current Time: Oct 25, 2014 at 2:44:16 PM

Latest Report: Oct 25, 2014 at 2:00 PM


Visibility: N/A

Pressure: 29.92 "Hg

Humidity: 72%

Dew point: 3 °F

Location of YekaterinburgLocation

Historic Weather in Yekaterinburg — Graph

°F

Yekaterinburg temperature yesterday

Maximum temperature yesterday: 18 °F (at 5:00 PM)
Minimum temperature yesterday: 3 °F (at 6:00 AM)
Average temperature yesterday: 11 °F

Past Weeks' High & Low Weather Summary

 TemperatureHumidityPressure
High39 °F (Oct 10, 1:00 PM)100% (Oct 10, 9:00 PM)30.12 "Hg (Oct 10, 9:00 PM)
Low3 °F (Oct 24, 6:00 AM)52% (Oct 11, 4:00 PM)29.45 "Hg (Oct 23, 3:00 AM)
Average26 °F89%29.80 "Hg
* Reported Oct 10 1:00 PM — Oct 25 1:30 PM, Yekaterinburg, Weather by CustomWeather, © 2014

Note: Actual official high and low records may vary slightly from our data, if they occured in-between our weather recording intervals... More about our weather records

Advertising

Yekaterinburg weather history for previous 24 hours

 ConditionsComfort  
Time TempWeatherWind HumidityBarometerVisibility
1:30 PM
Oct 25
10 °FSnow flurries. Partly sunny.13 mph79%29.92 "Hg4 mi
1:00 PM10 °FPartly sunny.13 mph72%29.89 "HgN/A
12:30 PM9 °FSnow flurries. Partly sunny.13 mph78%29.89 "Hg4 mi
12:00 PM9 °FLight snow. Mostly cloudy.13 mph85%29.89 "Hg4 mi
11:30 AM9 °FLight snow. Mostly cloudy.10 mph85%29.89 "Hg4 mi
11:00 AM9 °FLight snow. Mostly cloudy.10 mph85%29.86 "Hg4 mi
10:30 AM9 °FLight snow. Cloudy.13 mph85%29.86 "Hg4 mi
10:00 AM9 °FBroken clouds.13 mph85%29.86 "HgN/A
9:30 AM9 °FPartly cloudy.10 mph85%29.86 "HgN/A
8:30 AM9 °FLight snow. Mostly cloudy.10 mph85%29.83 "Hg4 mi
8:00 AM9 °FLight snow. Mostly cloudy.10 mph85%29.83 "Hg4 mi
7:30 AM10 °FLight snow. Mostly cloudy.10 mph79%29.83 "Hg3 mi
7:00 AM10 °FLight snow. Mostly cloudy.13 mph79%29.83 "Hg4 mi
6:30 AM10 °FLight snow. Overcast.10 mph79%29.83 "Hg4 mi
6:00 AM10 °FLight snow. Mostly cloudy.10 mph79%29.83 "Hg4 mi
5:30 AM10 °FLight snow. Overcast.10 mph79%29.80 "Hg4 mi
5:00 AM10 °FLight snow. Overcast.10 mph79%29.80 "HgN/A
4:30 AM10 °FLight snow. Mostly cloudy.10 mph85%29.80 "Hg4 mi
4:00 AM10 °FLight snow. Mostly cloudy.10 mph85%29.80 "Hg4 mi
3:30 AM10 °FLight snow. Mostly cloudy.8 mph85%29.80 "Hg4 mi
3:00 AM10 °FSnow flurries. Mostly cloudy.8 mph85%29.77 "HgN/A
2:30 AM10 °FSnow flurries. Mostly cloudy.8 mph85%29.77 "Hg4 mi
2:00 AM10 °FSnow flurries. Mostly cloudy.8 mph92%29.77 "Hg4 mi
1:30 AM10 °FSnow flurries. Mostly cloudy.6 mph85%29.77 "Hg4 mi
1:00 AM10 °FSnow flurries. Mostly cloudy.8 mph85%29.77 "Hg4 mi
12:30 AM12 °FSnow flurries. Mostly cloudy.10 mph79%29.74 "HgN/A
12:00 AM12 °FSnow flurries. Mostly cloudy.10 mph85%29.74 "Hg4 mi
11:30 PM
Oct 24
14 °FSnow flurries. Mostly cloudy.13 mph85%29.74 "Hg4 mi
11:00 PM14 °FSnow flurries. Mostly cloudy.6 mph92%29.74 "Hg3 mi
10:30 PM14 °FSnow flurries. Mostly cloudy.6 mph85%29.74 "Hg4 mi
10:00 PM14 °FSnow flurries. Mostly cloudy.10 mph92%29.71 "Hg4 mi
9:30 PM16 °FSnow flurries. Mostly cloudy.10 mph86%29.71 "Hg3 mi
9:00 PM16 °FSnow flurries. Mostly cloudy.6 mph86%29.71 "Hg3 mi
8:30 PM16 °FSnow flurries. Overcast.6 mph93%29.71 "Hg4 mi
8:00 PM16 °FSnow showers. Overcast.8 mph86%29.71 "Hg1 mi
7:30 PM16 °FMore clouds than sun.10 mph86%29.71 "Hg4 mi
7:00 PM16 °FSnow flurries. Mostly cloudy.10 mph86%29.71 "Hg4 mi
6:30 PM16 °FSnow flurries. Mostly cloudy.10 mph86%29.68 "HgN/A
6:00 PM18 °FSnow flurries. Mostly cloudy.10 mph86%29.68 "Hg4 mi
5:30 PM18 °FSnow showers. Low clouds.8 mph86%29.68 "Hg1 mi
5:00 PM18 °FSnow showers. Ice fog.8 mph86%29.68 "Hg1 mi
4:30 PM16 °FSnow flurries. Overcast.10 mph93%29.65 "Hg4 mi
4:00 PM16 °FSnow flurries. Mostly cloudy.10 mph86%29.65 "Hg2 mi
3:30 PM16 °FLight snow. Mostly cloudy.10 mph79%29.65 "Hg3 mi
3:00 PM16 °FLight snow. Cloudy.8 mph79%29.65 "Hg4 mi
2:30 PM14 °FLight snow. Mostly cloudy.13 mph85%29.65 "Hg3 mi
2:00 PM14 °FLight snow. Mostly cloudy.13 mph85%29.62 "Hg4 mi
Weather by CustomWeather, © 2014

See weather overviewHow to use our weather pages